Weather History for KGED - January, 2013

Change the Weather History Date:

Wednesday, January 9, 2013

  Actual Average Record
Temperature  
Mean Temperature 49 °F 35 °F  
Max Temperature 63 °F 43 °F 69 °F (2008)
Min Temperature 35 °F 27 °F 2 °F (1970)
Degree Days  
Heating Degree Days 16 30  
Month to date heating degree days 234 267  
Since 1 July heating degree days 1648 1849  
Cooling Degree Days 0 0  
Month to date cooling degree days 0 0  
Year to date cooling degree days 0 0  
Moisture  
Dew Point 40 °F    
Average Humidity 74    
Maximum Humidity 92    
Minimum Humidity 55    
Precipitation  
Precipitation 0.00 in 0.09 in 1.72 in (1978)
Month to date precipitation T 0.85  
Year to date precipitation T 0.85  
Sea Level Pressure  
Sea Level Pressure 30.35 in    
Wind  
Wind Speed 5 mph (SW)    
Max Wind Speed 17 mph    
Max Gust Speed 23 mph    
Visibility 10 miles    
Events      
T = Trace of Precipitation, MM = Missing Value Source: NWS Daily Summary

Daily Weather History Graph

Daily Weather History Graph

Search for Another Location

Airport or City:

Trip Planner

Search our weather history database for the weather conditions in past years. The results will help you decide how hot, cold, wet, or windy it might be!

Date:

Astronomy

Jan. 09, 2013 Rise Set
Actual Time 7:19 AM EST 4:58 PM EST
Civil Twilight 6:50 AM EST 5:27 PM EST
Nautical Twilight 6:17 AM EST 6:00 PM EST
Astronomical Twilight 5:45 AM EST 6:32 PM EST
Moon 4:56 AM EST (1/9) 2:57 PM EST (1/9)
Length of Visible Light 10h 37m
Length of Day
9h 38m
Waning Crescent, 6% of the Moon is Illuminated
Jan 9
Waning Crescent
Jan 11
New
Jan 18
First Quarter
Jan 26
Full
Feb 3
Last Quarter

Hourly Weather History & Observations

Time (EST) Temp. Dew Point Humidity Pressure Visibility Wind Dir Wind Speed Gust Speed Precip Events Conditions
12:54 AM 44.1 °F 35.1 °F 71% 30.40 in 10.0 mi Calm Calm - N/A   Overcast
1:16 AM 42.8 °F 35.6 °F 76% 30.39 in 10.0 mi Calm Calm - N/A   Scattered Clouds
1:54 AM 41.0 °F 35.1 °F 79% 30.39 in 10.0 mi Calm Calm - N/A   Mostly Cloudy
2:54 AM 39.0 °F 33.1 °F 79% 30.39 in 10.0 mi Calm Calm - N/A   Partly Cloudy
3:54 AM 37.9 °F 34.0 °F 86% 30.39 in 10.0 mi Calm Calm - N/A   Mostly Cloudy
4:54 AM 39.0 °F 35.1 °F 86% 30.38 in 10.0 mi Calm Calm - N/A   Overcast
5:54 AM 37.9 °F 35.1 °F 89% 30.38 in 10.0 mi Calm Calm - N/A   Scattered Clouds
6:54 AM 36.0 °F 33.1 °F 89% 30.38 in 7.0 mi Calm Calm - N/A   Clear
7:54 AM 36.0 °F 33.1 °F 89% 30.41 in 7.0 mi Calm Calm - N/A   Clear
8:54 AM 43.0 °F 37.9 °F 82% 30.41 in 7.0 mi Calm Calm - N/A   Overcast
9:54 AM 50.0 °F 37.9 °F 63% 30.40 in 10.0 mi SSW 5.8 mph - N/A   Scattered Clouds
10:03 AM 51.8 °F 37.4 °F 58% 30.39 in 10.0 mi SSW 8.1 mph - N/A   Mostly Cloudy
10:36 AM 53.6 °F 39.2 °F 58% 30.38 in 10.0 mi South 8.1 mph - N/A   Scattered Clouds
11:54 AM 57.9 °F 43.0 °F 58% 30.32 in 10.0 mi SW 13.8 mph - N/A   Clear
12:54 PM 60.1 °F 44.1 °F 55% 30.29 in 10.0 mi SW 10.4 mph 19.6 mph N/A   Clear
1:54 PM 61.0 °F 44.1 °F 54% 30.29 in 10.0 mi WSW 12.7 mph 20.7 mph N/A   Mostly Cloudy
2:54 PM 61.0 °F 44.1 °F 54% 30.30 in 10.0 mi West 8.1 mph - N/A   Partly Cloudy
3:54 PM 59.0 °F 44.1 °F 58% 30.27 in 10.0 mi SW 9.2 mph - N/A   Clear
4:54 PM 57.9 °F 45.0 °F 62% 30.25 in 10.0 mi SSW 10.4 mph - N/A   Partly Cloudy
6:54 PM 54.0 °F 46.0 °F 75% 30.25 in 10.0 mi SW 8.1 mph - N/A   Clear
7:54 PM 55.0 °F 46.9 °F 74% 30.28 in 10.0 mi WSW 6.9 mph - N/A   Partly Cloudy
8:54 PM 54.0 °F 46.9 °F 77% 30.31 in 10.0 mi WNW 3.5 mph - N/A   Clear
9:54 PM 52.0 °F 45.0 °F 77% 30.33 in 10.0 mi Calm Calm - N/A   Clear
10:54 PM 51.1 °F 42.1 °F 71% 30.34 in 10.0 mi WNW 3.5 mph - N/A   Clear
11:54 PM 50.0 °F 36.0 °F 59% 30.35 in 10.0 mi NW 6.9 mph - N/A   Clear